EW1940 Weather Reports


Display with metric or nautical units.
time (UTC)temp
F
wind
direction
speed
MPH
gust
MPH
rain 1hr
in
rain 24hr
in
rain mn
in
humidity
%
barometer
mb
20260901011516 59 293 2.0 4.0 0.00 0.17 0.00 81 1019.9
20260901010537 59 315 2.0 6.0 0.00 0.17 0.00 81 1019.8
20260901005516 59 293 2.0 5.0 0.00 0.17 0.00 81 1019.8
20260901004517 59 315 3.0 5.0 0.00 0.17 0.00 81 1019.8
20260901003516 59 293 2.0 5.0 0.00 0.17 0.00 81 1019.7
20260901002517 59 315 1.0 4.0 0.00 0.17 0.00 80 1019.7
20260901001516 59 293 2.0 5.0 0.00 0.17 0.00 80 1019.7
20260901000515 59 293 2.0 4.0 0.00 0.17 0.00 79 1019.7
20260831235516 60 293 2.0 4.0 0.00 0.17 0.00 78 1019.7
20260831234516 60 293 1.0 4.0 0.00 0.17 0.00 77 1019.7
20260831233535 60 293 2.0 5.0 0.00 0.23 0.00 77 1019.7
20260831232537 60 293 2.0 5.0 0.00 0.46 0.00 76 1019.7
20260831231516 61 315 2.0 5.0 0.00 0.57 0.00 76 1019.7
20260831230516 61 315 2.0 5.0 0.00 0.72 0.00 75 1019.7
20260831225515 61 315 3.0 6.0 0.00 0.75 0.74 75 1019.5
20260831224517 61 315 3.0 6.0 0.00 0.75 0.74 75 1019.6
20260831223515 61 315 3.0 8.0 0.00 0.75 0.74 74 1019.6
20260831222515 62 315 5.0 8.0 0.00 0.75 0.74 74 1019.5
20260831221517 62 293 3.0 7.0 0.00 0.75 0.74 74 1019.4
20260831220515 62 293 3.0 9.0 0.00 0.75 0.74 74 1019.5
20260831215516 62 315 4.0 7.0 0.00 0.75 0.74 73 1019.3
20260831214515 62 315 5.0 11.0 0.00 0.75 0.74 73 1019.2
20260831213515 63 315 4.0 9.0 0.00 0.75 0.74 73 1019.2
20260831212515 63 315 3.0 7.0 0.00 0.75 0.74 72 1019.1
20260831211515 63 315 3.0 8.0 0.00 0.75 0.74 72 1019.0
20260831210537 63 315 3.0 7.0 0.00 0.75 0.74 71 1018.9
20260831205515 64 315 4.0 8.0 0.00 0.75 0.74 70 1018.9
20260831204517 64 315 4.0 11.0 0.00 0.75 0.74 70 1018.8
20260831203515 64 315 4.0 8.0 0.00 0.75 0.74 70 1018.6
20260831202537 64 315 3.0 7.0 0.00 0.75 0.74 69 1018.4
20260831201515 64 315 4.0 7.0 0.00 0.75 0.74 70 1018.3
20260831200515 65 293 3.0 6.0 0.00 0.75 0.74 70 1018.2
20260831195515 65 315 4.0 9.0 0.00 0.75 0.74 69 1018.2
20260831194517 65 315 4.0 8.0 0.00 0.75 0.74 69 1018.1
20260831193519 66 293 3.0 7.0 0.00 0.76 0.74 69 1018.0
20260831192517 66 315 4.0 11.0 0.00 0.79 0.74 68 1017.7
20260831191519 67 293 3.0 8.0 0.00 0.79 0.74 68 1017.4
20260831190520 68 315 3.0 8.0 0.00 0.79 0.74 67 1017.3
20260831185517 68 315 4.0 8.0 0.00 0.79 0.74 67 1017.2
20260831184535 69 315 4.0 9.0 0.00 0.79 0.74 67 1017.1
20260831183559 69 315 7.0 12.0 0.00 0.79 0.74 66 1016.8
20260831182517 70 315 4.0 14.0 0.00 0.79 0.74 65 1016.8
20260831181600 70 315 4.0 9.0 0.00 0.79 0.74 64 1016.6
20260831180517 71 315 5.0 10.0 0.00 0.79 0.74 63 1016.5
20260831175517 71 315 5.0 10.0 0.00 0.79 0.74 61 1016.4
20260831174517 71 315 5.0 11.0 0.00 0.79 0.74 61 1016.3
20260831173537 71 315 5.0 10.0 0.00 0.79 0.74 60 1016.2
20260831172517 72 293 5.0 11.0 0.00 0.79 0.74 60 1016.2
20260831171517 72 293 6.0 14.0 0.00 0.79 0.74 59 1016.0
20260831170517 72 293 5.0 12.0 0.00 0.79 0.74 61 1015.8
20260831165537 72 248 4.0 10.0 0.00 0.79 0.74 68 1015.8
20260831164517 73 248 6.0 14.0 0.00 0.79 0.74 68 1015.6
20260831163517 73 248 6.0 13.0 0.00 0.79 0.74 63 1015.5
20260831162517 73 248 6.0 14.0 0.00 0.79 0.74 66 1015.4
20260831161517 73 270 7.0 16.0 0.00 0.79 0.74 65 1015.3
20260831160517 73 248 7.0 14.0 0.00 0.79 0.74 67 1015.3
20260831155518 74 248 9.0 20.0 0.00 0.79 0.74 66 1015.2
20260831154520 74 270 7.0 19.0 0.00 0.79 0.74 68 1015.2
20260831153517 73 248 8.0 16.0 0.00 0.79 0.74 68 1015.0
20260831152518 74 248 8.0 14.0 0.00 0.79 0.74 66 1014.9
20260831151517 75 248 10.0 17.0 0.00 0.79 0.74 64 1014.8
20260831150517 76 225 9.0 19.0 0.00 0.79 0.74 59 1014.8
20260831145537 76 248 9.0 18.0 0.00 0.79 0.74 57 1014.7
20260831144517 77 270 6.0 14.0 0.00 0.79 0.74 57 1014.6
20260831143517 76 248 8.0 15.0 0.00 0.79 0.74 56 1014.6
20260831142517 75 248 9.0 14.0 0.00 0.79 0.74 58 1014.4
20260831141518 75 248 8.0 16.0 0.00 0.79 0.74 58 1014.4
20260831140537 75 293 4.0 12.0 0.00 0.79 0.74 57 1014.3
20260831135519 75 270 5.0 11.0 0.00 0.79 0.74 58 1014.3
20260831134517 75 315 6.0 11.0 0.00 0.79 0.74 58 1014.2
20260831133517 76 293 7.0 14.0 0.00 0.79 0.74 57 1014.1
20260831132541 76 315 6.0 13.0 0.00 0.79 0.74 56 1014.0
20260831131517 75 315 6.0 17.0 0.00 0.79 0.74 59 1014.0
20260831130516 76 315 6.0 12.0 0.00 0.79 0.74 57 1013.9
20260831125517 75 293 6.0 11.0 0.00 0.79 0.74 60 1013.8
20260831124518 74 315 7.0 14.0 0.00 0.79 0.74 60 1013.7
20260831123557 74 315 7.0 12.0 0.00 0.79 0.74 62 1013.6
20260831122600 73 315 8.0 15.0 0.00 0.79 0.74 63 1013.4
20260831121516 73 315 8.0 16.0 0.00 0.79 0.74 62 1013.4
20260831120518 74 315 7.0 17.0 0.00 0.79 0.74 62 1013.1
20260831115618 74 293 8.0 17.0 0.00 0.79 0.74 61 1013.2
20260831114518 75 315 10.0 17.0 0.00 0.79 0.74 58 1013.0
20260831113516 75 315 8.0 20.0 0.00 0.79 0.74 60 1012.8
20260831112538 75 315 8.0 19.0 0.00 0.79 0.74 60 1012.7
20260831111519 75 293 8.0 19.0 0.00 0.79 0.74 63 1012.5
20260831110516 74 270 8.0 16.0 0.00 0.79 0.74 64 1012.3
20260831105516 73 315 8.0 17.0 0.00 0.79 0.74 66 1012.3
20260831104517 72 315 7.0 13.0 0.00 0.79 0.74 67 1012.1
20260831103516 72 315 9.0 19.0 0.00 0.79 0.74 67 1012.1
20260831102518 70 315 8.0 14.0 0.00 0.79 0.74 72 1012.0
20260831101518 69 315 6.0 13.0 0.00 0.79 0.74 75 1011.9
20260831100518 69 315 8.0 16.0 0.00 0.79 0.74 74 1011.9
20260831095516 69 315 8.0 16.0 0.00 0.79 0.74 73 1011.8
20260831094538 70 315 8.0 16.0 0.00 0.79 0.74 73 1011.7
20260831093518 70 315 6.0 17.0 0.00 0.79 0.74 74 1011.6
20260831092540 70 293 7.0 14.0 0.00 0.79 0.74 73 1011.5
20260831091516 70 315 6.0 13.0 0.00 0.79 0.74 75 1011.4
20260831090516 69 315 8.0 16.0 0.00 0.79 0.74 75 1011.1
20260831085516 68 315 8.0 16.0 0.00 0.79 0.74 76 1010.9
20260831084536 67 293 6.0 14.0 0.00 0.79 0.74 78 1010.8
20260831083516 66 293 9.0 16.0 0.00 0.79 0.74 81 1010.8
20260831082521 65 293 9.0 19.0 0.00 0.79 0.74 82 1010.6
20260831081516 64 315 9.0 18.0 0.00 0.79 0.74 82 1010.4
20260831080516 64 293 8.0 14.0 0.00 0.79 0.74 83 1010.3
20260831075518 64 315 7.0 14.0 0.00 0.79 0.74 84 1010.1
20260831074516 63 315 8.0 16.0 0.00 0.79 0.74 83 1010.1
20260831073516 63 315 6.0 14.0 0.00 0.79 0.74 84 1009.8
20260831072516 63 293 7.0 13.0 0.00 0.79 0.74 84 1009.7
20260831071536 63 315 9.0 17.0 0.00 0.79 0.74 84 1009.7
20260831070516 62 315 7.0 17.0 0.00 0.79 0.74 85 1009.4
20260831065516 62 315 6.0 14.0 0.00 0.79 0.74 86 1009.4
20260831064516 62 315 6.0 13.0 0.00 0.79 0.74 86 1009.1
20260831063516 62 315 5.0 12.0 0.00 0.79 0.74 87 1009.0
20260831062516 61 315 3.0 8.0 0.00 0.79 0.74 87 1008.9
20260831061518 61 315 5.0 12.0 0.00 0.79 0.74 86 1008.7
20260831060517 61 293 5.0 13.0 0.00 0.79 0.74 86 1008.6
20260831055536 61 293 7.0 17.0 0.00 0.79 0.74 86 1008.4
20260831054516 61 293 6.0 15.0 0.00 0.79 0.74 86 1008.1
20260831053517 61 270 6.0 13.0 0.00 0.79 0.74 86 1008.1
20260831052516 61 315 6.0 13.0 0.00 0.79 0.74 86 1007.9
20260831051516 61 270 6.0 13.0 0.00 0.79 0.74 87 1007.7
20260831050516 61 270 8.0 18.0 0.00 0.79 0.74 87 1007.5
20260831045516 61 270 7.0 15.0 0.00 0.79 0.74 88 1007.4
20260831044536 60 270 6.0 15.0 0.00 0.79 0.74 88 1007.2
20260831043537 60 315 6.0 13.0 0.00 0.79 0.74 88 1007.2
20260831042516 60 315 7.0 14.0 0.00 0.79 0.74 88 1007.1
20260831041536 60 293 5.0 17.0 0.00 0.79 0.74 89 1007.0
20260831040519 60 293 5.0 11.0 0.00 0.79 0.74 90 1007.1
20260831035516 60 293 5.0 15.0 0.00 0.79 0.74 90 1007.1
20260831034537 60 293 5.0 13.0 0.00 0.79 0.74 90 1007.1
20260831033516 60 315 6.0 13.0 0.00 0.79 0.74 90 1007.0
20260831032517 60 248 7.0 16.0 0.00 0.79 0.74 91 1006.8
20260831031517 60 270 6.0 13.0 0.00 0.79 0.74 91 1006.8
20260831030517 60 270 4.0 12.0 0.01 0.79 0.74 91 1006.7
20260831025515 60 315 5.0 11.0 0.02 0.79 0.74 91 1006.7
20260831024515 60 293 5.0 14.0 0.02 0.79 0.74 91 1006.5
20260831023516 61 270 5.0 14.0 0.02 0.79 0.74 91 1006.5
20260831022516 61 315 5.0 12.0 0.16 0.79 0.74 91 1006.5
20260831021515 61 293 3.0 9.0 0.17 0.79 0.74 91 1006.4
20260831020516 61 270 5.0 19.0 0.17 0.78 0.73 91 1006.4
20260831015557 61 293 3.0 8.0 0.15 0.76 0.72 91 1006.2
20260831014517 60 293 3.0 10.0 0.15 0.76 0.72 90 1006.2
20260831013517 61 248 5.0 12.0 0.15 0.76 0.72 88 1006.3
20260831012515 62 315 9.0 18.0 0.02 0.63 0.58 86 1006.6